Year,Month,Day,Hour,Minute,Value (Times are PST for temperature in C)
2014,09,20,00,00,13.70
2014,09,20,00,01,13.70
2014,09,20,00,02,13.80
2014,09,20,00,03,13.80
2014,09,20,00,04,13.90
2014,09,20,00,05,13.90
2014,09,20,00,06,14.00
2014,09,20,00,07,14.00
2014,09,20,00,08,14.10
2014,09,20,00,09,14.10
2014,09,20,00,10,14.10
2014,09,20,00,11,14.20
2014,09,20,00,12,14.20
2014,09,20,00,13,14.20
2014,09,20,00,14,14.20
2014,09,20,00,15,14.20
2014,09,20,00,16,14.30
2014,09,20,00,17,14.30
2014,09,20,00,18,14.30
2014,09,20,00,19,14.40
2014,09,20,00,20,14.40
2014,09,20,00,21,14.40
2014,09,20,00,22,14.40
2014,09,20,00,23,14.40
2014,09,20,00,24,14.40
2014,09,20,00,25,14.40
2014,09,20,00,26,14.50
2014,09,20,00,27,14.50
2014,09,20,00,28,14.50
2014,09,20,00,29,14.50
2014,09,20,00,30,14.50
2014,09,20,00,31,14.50
2014,09,20,00,32,14.50
2014,09,20,00,33,14.50
2014,09,20,00,34,14.50
2014,09,20,00,35,14.60
2014,09,20,00,36,14.60
2014,09,20,00,37,14.60
2014,09,20,00,38,14.60
2014,09,20,00,39,14.60
2014,09,20,00,40,14.60
2014,09,20,00,41,14.60
2014,09,20,00,42,14.60
2014,09,20,00,43,14.60
2014,09,20,00,44,14.60
2014,09,20,00,45,14.60
2014,09,20,00,46,14.60
2014,09,20,00,47,14.60
2014,09,20,00,48,14.60
2014,09,20,00,49,14.60
2014,09,20,00,50,14.60
2014,09,20,00,51,14.60
2014,09,20,00,52,14.60
2014,09,20,00,53,14.70
2014,09,20,00,54,14.70
2014,09,20,00,55,14.70
2014,09,20,00,56,14.70
2014,09,20,00,57,14.70
2014,09,20,00,58,14.70
2014,09,20,00,59,14.70
2014,09,20,01,00,14.70
2014,09,20,01,01,14.70
2014,09,20,01,02,14.70
2014,09,20,01,03,14.80
2014,09,20,01,04,14.80
2014,09,20,01,05,14.80
2014,09,20,01,06,14.80
2014,09,20,01,07,14.80
2014,09,20,01,08,14.80
2014,09,20,01,09,14.80
2014,09,20,01,10,14.80
2014,09,20,01,11,14.80
2014,09,20,01,12,14.80
2014,09,20,01,13,14.80
2014,09,20,01,14,14.80
2014,09,20,01,15,14.80
2014,09,20,01,16,14.80
2014,09,20,01,17,14.80
2014,09,20,01,18,14.70
2014,09,20,01,19,14.70
2014,09,20,01,20,14.70
2014,09,20,01,21,14.70
2014,09,20,01,22,14.70
2014,09,20,01,23,14.70
2014,09,20,01,24,14.70
2014,09,20,01,25,14.70
2014,09,20,01,26,14.70
2014,09,20,01,27,14.70
2014,09,20,01,28,14.70
2014,09,20,01,29,14.60
2014,09,20,01,30,14.60
2014,09,20,01,31,14.60
2014,09,20,01,32,14.60
2014,09,20,01,33,14.60
2014,09,20,01,34,14.60
2014,09,20,01,35,14.70
2014,09,20,01,36,14.60
2014,09,20,01,37,14.70
2014,09,20,01,38,14.70
2014,09,20,01,39,14.70
2014,09,20,01,40,14.70
2014,09,20,01,41,14.70
2014,09,20,01,42,14.70
2014,09,20,01,43,14.70
2014,09,20,01,44,14.60
2014,09,20,01,45,14.60
2014,09,20,01,46,14.60
2014,09,20,01,47,14.70
2014,09,20,01,48,14.70
2014,09,20,01,49,14.80
2014,09,20,01,50,14.80
2014,09,20,01,51,14.80
2014,09,20,01,52,14.80
2014,09,20,01,53,14.80
2014,09,20,01,54,14.80
2014,09,20,01,55,14.80
2014,09,20,01,56,14.70
2014,09,20,01,57,14.70
2014,09,20,01,58,14.70
2014,09,20,01,59,14.80
2014,09,20,02,00,14.80
2014,09,20,02,01,14.80
2014,09,20,02,02,14.80
2014,09,20,02,03,14.80
2014,09,20,02,04,14.80
2014,09,20,02,05,14.80
2014,09,20,02,06,14.80
2014,09,20,02,07,14.80
2014,09,20,02,08,14.70
2014,09,20,02,09,14.70
2014,09,20,02,10,14.70
2014,09,20,02,11,14.70
2014,09,20,02,12,14.70
2014,09,20,02,13,14.70
2014,09,20,02,14,14.60
2014,09,20,02,15,14.60
2014,09,20,02,16,14.60
2014,09,20,02,17,14.60
2014,09,20,02,18,14.60
2014,09,20,02,19,14.60
2014,09,20,02,20,14.50
2014,09,20,02,21,14.50
2014,09,20,02,22,14.50
2014,09,20,02,23,14.50
2014,09,20,02,24,14.50
2014,09,20,02,25,14.50
2014,09,20,02,26,14.60
2014,09,20,02,27,14.60
2014,09,20,02,28,14.60
2014,09,20,02,29,14.50
2014,09,20,02,30,14.50
2014,09,20,02,31,14.60
2014,09,20,02,32,14.60
2014,09,20,02,33,14.70
2014,09,20,02,34,14.80
2014,09,20,02,35,14.80
2014,09,20,02,36,14.80
2014,09,20,02,37,14.80
2014,09,20,02,38,14.80
2014,09,20,02,39,14.80
2014,09,20,02,40,14.80
2014,09,20,02,41,14.80
2014,09,20,02,42,14.80
2014,09,20,02,43,14.80
2014,09,20,02,44,14.80
2014,09,20,02,45,14.80
2014,09,20,02,46,14.90
2014,09,20,02,47,14.90
2014,09,20,02,48,14.90
2014,09,20,02,49,14.90
2014,09,20,02,50,14.80
2014,09,20,02,51,14.80
2014,09,20,02,52,14.80
2014,09,20,02,53,14.80
2014,09,20,02,54,14.80
2014,09,20,02,55,14.70
2014,09,20,02,56,14.70
2014,09,20,02,57,14.70
2014,09,20,02,58,14.70
2014,09,20,02,59,14.60
2014,09,20,03,00,14.60
2014,09,20,03,01,14.60
2014,09,20,03,02,14.60
2014,09,20,03,03,14.60
2014,09,20,03,04,14.60
2014,09,20,03,05,14.60
2014,09,20,03,06,14.60
2014,09,20,03,07,14.60
2014,09,20,03,08,14.60
2014,09,20,03,09,14.50
2014,09,20,03,10,14.40
2014,09,20,03,11,14.30
2014,09,20,03,12,14.20
2014,09,20,03,13,14.10
2014,09,20,03,14,14.10
2014,09,20,03,15,14.00
2014,09,20,03,16,14.00
2014,09,20,03,17,14.00
2014,09,20,03,18,13.90
2014,09,20,03,19,13.90
2014,09,20,03,20,13.90
2014,09,20,03,21,13.90
2014,09,20,03,22,13.90
2014,09,20,03,23,13.90
2014,09,20,03,24,14.00
2014,09,20,03,25,14.00
2014,09,20,03,26,14.10
2014,09,20,03,27,14.20
2014,09,20,03,28,14.30
2014,09,20,03,29,14.30
2014,09,20,03,30,14.30
2014,09,20,03,31,14.20
2014,09,20,03,32,14.20
2014,09,20,03,33,14.20
2014,09,20,03,34,14.20
2014,09,20,03,35,14.20
2014,09,20,03,36,14.20
2014,09,20,03,37,14.20
2014,09,20,03,38,14.20
2014,09,20,03,39,14.20
2014,09,20,03,40,14.20
2014,09,20,03,41,14.20
2014,09,20,03,42,14.20
2014,09,20,03,43,14.20
2014,09,20,03,44,14.20
2014,09,20,03,45,14.20
2014,09,20,03,46,14.30
2014,09,20,03,47,14.30
2014,09,20,03,48,14.30
2014,09,20,03,49,14.30
2014,09,20,03,50,14.40
2014,09,20,03,51,14.50
2014,09,20,03,52,14.60
2014,09,20,03,53,14.70
2014,09,20,03,54,14.70
2014,09,20,03,55,14.80
2014,09,20,03,56,14.80
2014,09,20,03,57,14.90
2014,09,20,03,58,14.90
2014,09,20,03,59,14.90
2014,09,20,04,00,15.00
2014,09,20,04,01,15.00
2014,09,20,04,02,15.00
2014,09,20,04,03,15.10
2014,09,20,04,04,15.10
2014,09,20,04,05,15.10
2014,09,20,04,06,15.20
2014,09,20,04,07,15.20
2014,09,20,04,08,15.20
2014,09,20,04,09,15.20
2014,09,20,04,10,15.20
2014,09,20,04,11,15.20
2014,09,20,04,12,15.30
2014,09,20,04,13,15.30
2014,09,20,04,14,15.30
2014,09,20,04,15,15.30
2014,09,20,04,16,15.30
2014,09,20,04,17,15.30
2014,09,20,04,18,15.30
2014,09,20,04,19,15.30
2014,09,20,04,20,15.30
2014,09,20,04,21,15.30
2014,09,20,04,22,15.30
2014,09,20,04,23,15.30
2014,09,20,04,24,15.30
2014,09,20,04,25,15.30
2014,09,20,04,26,15.30
2014,09,20,04,27,15.30
2014,09,20,04,28,15.30
2014,09,20,04,29,15.30
2014,09,20,04,30,15.30
2014,09,20,04,31,15.30
2014,09,20,04,32,15.30
2014,09,20,04,33,15.30
2014,09,20,04,34,15.30
2014,09,20,04,35,15.30
2014,09,20,04,36,15.30
2014,09,20,04,37,15.30
2014,09,20,04,38,15.30
2014,09,20,04,39,15.30
2014,09,20,04,40,15.30
2014,09,20,04,41,15.30
2014,09,20,04,42,15.30
2014,09,20,04,43,15.30
2014,09,20,04,44,15.30
2014,09,20,04,45,15.30
2014,09,20,04,46,15.30
2014,09,20,04,47,15.30
2014,09,20,04,48,15.30
2014,09,20,04,49,15.20
2014,09,20,04,50,15.20
2014,09,20,04,51,15.20
2014,09,20,04,52,15.20
2014,09,20,04,53,15.20
2014,09,20,04,54,15.20
2014,09,20,04,55,15.20
2014,09,20,04,56,15.20
2014,09,20,04,57,15.20
2014,09,20,04,58,15.20
2014,09,20,04,59,15.20
2014,09,20,05,00,15.20
2014,09,20,05,01,15.20
2014,09,20,05,02,15.10
2014,09,20,05,03,15.10
2014,09,20,05,04,15.10
2014,09,20,05,05,15.10
2014,09,20,05,06,15.10
2014,09,20,05,07,15.10
2014,09,20,05,08,15.10
2014,09,20,05,09,15.10
2014,09,20,05,10,15.10
2014,09,20,05,11,15.00
2014,09,20,05,12,15.00
2014,09,20,05,13,15.00
2014,09,20,05,14,15.00
2014,09,20,05,15,14.90
2014,09,20,05,16,14.90
2014,09,20,05,17,14.90
2014,09,20,05,18,14.90
2014,09,20,05,19,14.80
2014,09,20,05,20,14.80
2014,09,20,05,21,14.80
2014,09,20,05,22,14.80
2014,09,20,05,23,14.80
2014,09,20,05,24,14.80
2014,09,20,05,25,14.80
2014,09,20,05,26,14.80
2014,09,20,05,27,14.80
2014,09,20,05,28,14.70
2014,09,20,05,29,14.70
2014,09,20,05,30,14.70
2014,09,20,05,31,14.70
2014,09,20,05,32,14.70
2014,09,20,05,33,14.70
2014,09,20,05,34,14.70
2014,09,20,05,35,14.70
2014,09,20,05,36,14.60
2014,09,20,05,37,14.60
2014,09,20,05,38,14.60
2014,09,20,05,39,14.70
2014,09,20,05,40,14.70
2014,09,20,05,41,14.70
2014,09,20,05,42,14.70
2014,09,20,05,43,14.70
2014,09,20,05,44,14.60
2014,09,20,05,45,14.60
2014,09,20,05,46,14.60
2014,09,20,05,47,14.50
2014,09,20,05,48,14.40
2014,09,20,05,49,14.30
2014,09,20,05,50,14.20
2014,09,20,05,51,14.20
2014,09,20,05,52,14.20
2014,09,20,05,53,14.10
2014,09,20,05,54,14.10
2014,09,20,05,55,14.00
2014,09,20,05,56,14.00
2014,09,20,05,57,14.00
2014,09,20,05,58,13.90
2014,09,20,05,59,13.90
2014,09,20,06,00,13.90
2014,09,20,06,01,13.90
2014,09,20,06,02,13.90
2014,09,20,06,03,13.90
2014,09,20,06,04,13.90
2014,09,20,06,05,13.90
2014,09,20,06,06,13.90
2014,09,20,06,07,13.90
2014,09,20,06,08,13.80
2014,09,20,06,09,13.80
2014,09,20,06,10,13.80
2014,09,20,06,11,13.80
2014,09,20,06,12,13.70
2014,09,20,06,13,13.70
2014,09,20,06,14,13.70
2014,09,20,06,15,13.70
2014,09,20,06,16,13.70
2014,09,20,06,17,13.70
2014,09,20,06,18,13.70
2014,09,20,06,19,13.70
2014,09,20,06,20,13.70
2014,09,20,06,21,13.70
2014,09,20,06,22,13.70
2014,09,20,06,23,13.70
2014,09,20,06,24,13.70
2014,09,20,06,25,13.70
2014,09,20,06,26,13.70
2014,09,20,06,27,13.80
2014,09,20,06,28,13.80
2014,09,20,06,29,13.80
2014,09,20,06,30,13.80
2014,09,20,06,31,13.80
2014,09,20,06,32,13.80
2014,09,20,06,33,13.80
2014,09,20,06,34,13.80
2014,09,20,06,35,13.80
2014,09,20,06,36,13.80
2014,09,20,06,37,13.80
2014,09,20,06,38,13.80
2014,09,20,06,39,13.70
2014,09,20,06,40,13.70
2014,09,20,06,41,13.70
2014,09,20,06,42,13.70
2014,09,20,06,43,13.70
2014,09,20,06,44,13.70
2014,09,20,06,45,13.70
2014,09,20,06,46,13.70
2014,09,20,06,47,13.70
2014,09,20,06,48,13.70
2014,09,20,06,49,13.70
2014,09,20,06,50,13.80
2014,09,20,06,51,13.80
2014,09,20,06,52,13.80
2014,09,20,06,53,13.80
2014,09,20,06,54,13.90
2014,09,20,06,55,13.90
2014,09,20,06,56,13.90
2014,09,20,06,57,13.90
2014,09,20,06,58,13.90
2014,09,20,06,59,14.00
2014,09,20,07,00,14.00
2014,09,20,07,01,14.00
2014,09,20,07,02,14.00
2014,09,20,07,03,14.00
2014,09,20,07,04,14.00
2014,09,20,07,05,14.00
2014,09,20,07,06,14.10
2014,09,20,07,07,14.10
2014,09,20,07,08,14.20
2014,09,20,07,09,14.20
2014,09,20,07,10,14.20
2014,09,20,07,11,14.20
2014,09,20,07,12,14.30
2014,09,20,07,13,14.30
2014,09,20,07,14,14.40
2014,09,20,07,15,14.40
2014,09,20,07,16,14.50
2014,09,20,07,17,14.50
2014,09,20,07,18,14.50
2014,09,20,07,19,14.50
2014,09,20,07,20,14.50
2014,09,20,07,21,14.50
2014,09,20,07,22,14.50
2014,09,20,07,23,14.50
2014,09,20,07,24,14.50
2014,09,20,07,25,14.50
2014,09,20,07,26,14.50
2014,09,20,07,27,14.50
2014,09,20,07,28,14.50
2014,09,20,07,29,14.40
2014,09,20,07,30,14.10
2014,09,20,07,31,14.00
2014,09,20,07,32,13.90
2014,09,20,07,33,13.90
2014,09,20,07,34,13.80
2014,09,20,07,35,13.80
2014,09,20,07,36,13.80
2014,09,20,07,37,13.80
2014,09,20,07,38,13.80
2014,09,20,07,39,13.80
2014,09,20,07,40,13.80
2014,09,20,07,41,13.80
2014,09,20,07,42,13.80
2014,09,20,07,43,13.80
2014,09,20,07,44,13.80
2014,09,20,07,45,13.80
2014,09,20,07,46,13.90
2014,09,20,07,47,13.90
2014,09,20,07,48,13.90
2014,09,20,07,49,13.90
2014,09,20,07,50,14.00
2014,09,20,07,51,14.00
2014,09,20,07,52,14.00
2014,09,20,07,53,14.00
2014,09,20,07,54,14.10
2014,09,20,07,55,14.10
2014,09,20,07,56,14.10
2014,09,20,07,57,14.20
2014,09,20,07,58,14.20
2014,09,20,07,59,14.20
2014,09,20,08,00,14.20
2014,09,20,08,01,14.30
2014,09,20,08,02,14.30
2014,09,20,08,03,14.40
2014,09,20,08,04,14.40
2014,09,20,08,05,14.50
2014,09,20,08,06,14.60
2014,09,20,08,07,14.60
2014,09,20,08,08,14.60
2014,09,20,08,09,14.60
2014,09,20,08,10,14.60
2014,09,20,08,11,14.80
2014,09,20,08,12,14.80
2014,09,20,08,13,14.90
2014,09,20,08,14,15.00
2014,09,20,08,15,15.10
2014,09,20,08,16,15.10
2014,09,20,08,17,15.20
2014,09,20,08,18,15.20
2014,09,20,08,19,15.30
2014,09,20,08,20,15.30
2014,09,20,08,21,15.30
2014,09,20,08,22,15.30
2014,09,20,08,23,15.30
2014,09,20,08,24,15.40
2014,09,20,08,25,15.40
2014,09,20,08,26,15.40
2014,09,20,08,27,15.40
2014,09,20,08,28,15.40
2014,09,20,08,29,15.50
2014,09,20,08,30,15.50
2014,09,20,08,31,15.50
2014,09,20,08,32,15.50
2014,09,20,08,33,15.50
2014,09,20,08,34,15.50
2014,09,20,08,35,15.50
2014,09,20,08,36,15.50
2014,09,20,08,37,15.50
2014,09,20,08,38,15.50
2014,09,20,08,39,15.50
2014,09,20,08,40,15.50
2014,09,20,08,41,15.50
2014,09,20,08,42,15.50
2014,09,20,08,43,15.50
2014,09,20,08,44,15.50
2014,09,20,08,45,15.50
2014,09,20,08,46,15.50
2014,09,20,08,47,15.50
2014,09,20,08,48,15.60
2014,09,20,08,49,15.60
2014,09,20,08,50,15.60
2014,09,20,08,51,15.60
2014,09,20,08,52,15.60
2014,09,20,08,53,15.60
2014,09,20,08,54,15.70
2014,09,20,08,55,15.70
2014,09,20,08,56,15.70
2014,09,20,08,57,15.70
2014,09,20,08,58,15.70
2014,09,20,08,59,15.70
2014,09,20,09,00,15.70
2014,09,20,09,01,15.70
2014,09,20,09,02,15.80
2014,09,20,09,03,15.80
2014,09,20,09,04,15.80
2014,09,20,09,05,15.80
2014,09,20,09,06,15.80
2014,09,20,09,07,15.80
2014,09,20,09,08,15.80
2014,09,20,09,09,15.80
2014,09,20,09,10,15.80
2014,09,20,09,11,15.80
2014,09,20,09,12,15.80
2014,09,20,09,13,15.80
2014,09,20,09,14,15.80
2014,09,20,09,15,15.80
2014,09,20,09,16,15.80
2014,09,20,09,17,15.80
2014,09,20,09,18,15.80
2014,09,20,09,19,15.80
2014,09,20,09,20,15.80
2014,09,20,09,21,15.80
2014,09,20,09,22,15.90
2014,09,20,09,23,16.00
2014,09,20,09,24,16.10
2014,09,20,09,25,16.10
2014,09,20,09,26,16.10
2014,09,20,09,27,16.10
2014,09,20,09,28,16.20
2014,09,20,09,29,16.20
2014,09,20,09,30,16.20
2014,09,20,09,31,16.20
2014,09,20,09,32,16.20
2014,09,20,09,33,16.20
2014,09,20,09,34,16.20
2014,09,20,09,35,16.20
2014,09,20,09,36,16.30
2014,09,20,09,37,16.30
2014,09,20,09,38,16.40
2014,09,20,09,39,16.40
2014,09,20,09,40,16.50
2014,09,20,09,41,16.60
2014,09,20,09,42,16.60
2014,09,20,09,43,16.70
2014,09,20,09,44,16.70
2014,09,20,09,45,16.70
2014,09,20,09,46,16.70
2014,09,20,09,47,16.80
2014,09,20,09,48,16.90
2014,09,20,09,49,17.00
2014,09,20,09,50,17.00
2014,09,20,09,51,17.10
2014,09,20,09,52,17.20
2014,09,20,09,53,17.30
2014,09,20,09,54,17.20
2014,09,20,09,55,17.10
2014,09,20,09,56,17.00
2014,09,20,09,57,17.00
2014,09,20,09,58,17.00
2014,09,20,09,59,16.90
2014,09,20,10,00,16.90
2014,09,20,10,01,16.90
2014,09,20,10,02,16.80
2014,09,20,10,03,16.80
2014,09,20,10,04,16.80
2014,09,20,10,05,16.80
2014,09,20,10,06,16.80
2014,09,20,10,07,16.80
2014,09,20,10,08,16.80
2014,09,20,10,09,16.80
2014,09,20,10,10,16.80
2014,09,20,10,11,16.80
2014,09,20,10,12,16.80
2014,09,20,10,13,16.80
2014,09,20,10,14,16.80
2014,09,20,10,15,16.80
2014,09,20,10,16,16.80
2014,09,20,10,17,16.80
2014,09,20,10,18,16.80
2014,09,20,10,19,16.90
2014,09,20,10,20,16.90
2014,09,20,10,21,16.90
2014,09,20,10,22,16.90
2014,09,20,10,23,17.00
2014,09,20,10,24,17.00
2014,09,20,10,25,17.00
2014,09,20,10,26,17.00
2014,09,20,10,27,17.00
2014,09,20,10,28,17.00
2014,09,20,10,29,17.10
2014,09,20,10,30,17.10
2014,09,20,10,31,17.20
2014,09,20,10,32,17.20
2014,09,20,10,33,17.30
2014,09,20,10,34,17.40
2014,09,20,10,35,17.50
2014,09,20,10,36,17.50
2014,09,20,10,37,17.60
2014,09,20,10,38,17.70
2014,09,20,10,39,17.80
2014,09,20,10,40,17.80
2014,09,20,10,41,17.90
2014,09,20,10,42,18.00
2014,09,20,10,43,18.10
2014,09,20,10,44,18.20
2014,09,20,10,45,18.30
2014,09,20,10,46,18.40
2014,09,20,10,47,18.50
2014,09,20,10,48,18.60
2014,09,20,10,49,18.60
2014,09,20,10,50,18.70
2014,09,20,10,51,18.80
2014,09,20,10,52,18.90
2014,09,20,10,53,18.80
2014,09,20,10,54,18.80
2014,09,20,10,55,18.70
2014,09,20,10,56,18.60
2014,09,20,10,57,18.50
2014,09,20,10,58,18.40
2014,09,20,10,59,18.30
2014,09,20,11,00,18.30
2014,09,20,11,01,18.20
2014,09,20,11,02,18.20
2014,09,20,11,03,18.20
2014,09,20,11,04,18.20
2014,09,20,11,05,18.20
2014,09,20,11,06,18.20
2014,09,20,11,07,18.20
2014,09,20,11,08,18.30
2014,09,20,11,09,18.20
2014,09,20,11,10,18.20
2014,09,20,11,11,18.30
2014,09,20,11,12,18.30
2014,09,20,11,13,18.30
2014,09,20,11,14,18.30
2014,09,20,11,15,18.40
2014,09,20,11,16,18.40
2014,09,20,11,17,18.50
2014,09,20,11,18,18.50
2014,09,20,11,19,18.50
2014,09,20,11,20,18.50
2014,09,20,11,21,18.50
2014,09,20,11,22,18.60
2014,09,20,11,23,18.50
2014,09,20,11,24,18.50
2014,09,20,11,25,18.40
2014,09,20,11,26,18.20
2014,09,20,11,27,18.20
2014,09,20,11,28,18.20
2014,09,20,11,29,18.10
2014,09,20,11,30,18.10
2014,09,20,11,31,18.10
2014,09,20,11,32,18.20
2014,09,20,11,33,18.20
2014,09,20,11,34,18.20
2014,09,20,11,35,18.20
2014,09,20,11,36,18.20
2014,09,20,11,37,18.20
2014,09,20,11,38,18.30
2014,09,20,11,39,18.40
2014,09,20,11,40,18.40
2014,09,20,11,41,18.40
2014,09,20,11,42,18.40
2014,09,20,11,43,18.40
2014,09,20,11,44,18.40
2014,09,20,11,45,18.50
2014,09,20,11,46,18.60
2014,09,20,11,47,18.60
2014,09,20,11,48,18.60
2014,09,20,11,49,18.60
2014,09,20,11,50,18.60
2014,09,20,11,51,18.60
2014,09,20,11,52,18.60
2014,09,20,11,53,18.60
2014,09,20,11,54,18.50
2014,09,20,11,55,18.40
2014,09,20,11,56,18.30
2014,09,20,11,57,18.30
2014,09,20,11,58,18.40
2014,09,20,11,59,18.50
2014,09,20,12,00,18.60
2014,09,20,12,01,18.70
2014,09,20,12,02,18.80
2014,09,20,12,03,18.90
2014,09,20,12,04,18.90
2014,09,20,12,05,19.10
2014,09,20,12,06,19.10
2014,09,20,12,07,19.20
2014,09,20,12,08,19.20
2014,09,20,12,09,19.20
2014,09,20,12,10,19.20
2014,09,20,12,11,19.20
2014,09,20,12,12,19.10
2014,09,20,12,13,19.10
2014,09,20,12,14,19.00
2014,09,20,12,15,18.90
2014,09,20,12,16,18.90
2014,09,20,12,17,18.90
2014,09,20,12,18,18.90
2014,09,20,12,19,18.90
2014,09,20,12,20,18.90
2014,09,20,12,21,19.00
2014,09,20,12,22,19.10
2014,09,20,12,23,19.10
2014,09,20,12,24,19.10
2014,09,20,12,25,19.00
2014,09,20,12,26,18.90
2014,09,20,12,27,18.90
2014,09,20,12,28,18.90
2014,09,20,12,29,18.80
2014,09,20,12,30,18.80
2014,09,20,12,31,18.80
2014,09,20,12,32,18.80
2014,09,20,12,33,18.90
2014,09,20,12,34,18.90
2014,09,20,12,35,19.00
2014,09,20,12,36,19.10
2014,09,20,12,37,19.10
2014,09,20,12,38,19.10
2014,09,20,12,39,19.10
2014,09,20,12,40,19.10
2014,09,20,12,41,19.00
2014,09,20,12,42,18.90
2014,09,20,12,43,18.90
2014,09,20,12,44,18.90
2014,09,20,12,45,18.90
2014,09,20,12,46,18.90
2014,09,20,12,47,18.80
2014,09,20,12,48,18.80
2014,09,20,12,49,18.70
2014,09,20,12,50,18.70
2014,09,20,12,51,18.70
2014,09,20,12,52,18.70
2014,09,20,12,53,18.70
2014,09,20,12,54,18.60
2014,09,20,12,55,18.60
2014,09,20,12,56,18.60
2014,09,20,12,57,18.60
2014,09,20,12,58,18.60
2014,09,20,12,59,18.70
2014,09,20,13,00,18.80
2014,09,20,13,01,18.80
2014,09,20,13,02,18.80
2014,09,20,13,03,18.80
2014,09,20,13,04,18.80
2014,09,20,13,05,18.80
2014,09,20,13,06,18.80
2014,09,20,13,07,18.80
2014,09,20,13,08,18.80
2014,09,20,13,09,18.90
2014,09,20,13,10,18.90
2014,09,20,13,11,18.90
2014,09,20,13,12,18.90
2014,09,20,13,13,18.80
2014,09,20,13,14,18.80
2014,09,20,13,15,18.80
2014,09,20,13,16,18.80
2014,09,20,13,17,18.80
2014,09,20,13,18,18.90
2014,09,20,13,19,18.90
2014,09,20,13,20,18.90
2014,09,20,13,21,18.90
2014,09,20,13,22,18.90
2014,09,20,13,23,19.00
2014,09,20,13,24,19.10
2014,09,20,13,25,19.10
2014,09,20,13,26,19.10
2014,09,20,13,27,19.20
2014,09,20,13,28,19.20
2014,09,20,13,29,19.40
2014,09,20,13,30,19.50
2014,09,20,13,31,19.40
2014,09,20,13,32,19.50
2014,09,20,13,33,19.50
2014,09,20,13,34,19.60
2014,09,20,13,35,19.70
2014,09,20,13,36,19.70
2014,09,20,13,37,19.80
2014,09,20,13,38,19.70
2014,09,20,13,39,19.70
2014,09,20,13,40,19.70
2014,09,20,13,41,19.70
2014,09,20,13,42,19.70
2014,09,20,13,43,19.60
2014,09,20,13,44,19.50
2014,09,20,13,45,19.50
2014,09,20,13,46,19.60
2014,09,20,13,47,19.60
2014,09,20,13,48,19.70
2014,09,20,13,49,19.70
2014,09,20,13,50,19.70
2014,09,20,13,51,19.70
2014,09,20,13,52,19.60
2014,09,20,13,53,19.60
2014,09,20,13,54,19.50
2014,09,20,13,55,19.60
2014,09,20,13,56,19.60
2014,09,20,13,57,19.60
2014,09,20,13,58,19.50
2014,09,20,13,59,19.50
2014,09,20,14,00,19.40
2014,09,20,14,01,19.50
2014,09,20,14,02,19.50
2014,09,20,14,03,19.50
2014,09,20,14,04,19.50
2014,09,20,14,05,19.50
2014,09,20,14,06,19.60
2014,09,20,14,07,19.60
2014,09,20,14,08,19.80
2014,09,20,14,09,19.90
2014,09,20,14,10,20.00
2014,09,20,14,11,20.10
2014,09,20,14,12,20.20
2014,09,20,14,13,20.20
2014,09,20,14,14,20.20
2014,09,20,14,15,20.20
2014,09,20,14,16,20.20
2014,09,20,14,17,20.20
2014,09,20,14,18,20.10
2014,09,20,14,19,20.10
2014,09,20,14,20,20.10
2014,09,20,14,21,20.00
2014,09,20,14,22,19.90
2014,09,20,14,23,19.90
2014,09,20,14,24,19.90
2014,09,20,14,25,20.00
2014,09,20,14,26,20.10
2014,09,20,14,27,20.10
2014,09,20,14,28,20.10
2014,09,20,14,29,20.10
2014,09,20,14,30,20.20
2014,09,20,14,31,20.10
2014,09,20,14,32,20.10
2014,09,20,14,33,20.10
2014,09,20,14,34,20.20
2014,09,20,14,35,20.20
2014,09,20,14,36,20.20
2014,09,20,14,37,20.20
2014,09,20,14,38,20.20
2014,09,20,14,39,20.20
2014,09,20,14,40,20.20
2014,09,20,14,41,20.20
2014,09,20,14,42,20.30
2014,09,20,14,43,20.40
2014,09,20,14,44,20.50
2014,09,20,14,45,20.50
2014,09,20,14,46,20.50
2014,09,20,14,47,20.50
2014,09,20,14,48,20.60
2014,09,20,14,49,20.60
2014,09,20,14,50,20.60
2014,09,20,14,51,20.60
2014,09,20,14,52,20.60
2014,09,20,14,53,20.60
2014,09,20,14,54,20.50
2014,09,20,14,55,20.50
2014,09,20,14,56,20.50
2014,09,20,14,57,20.30
2014,09,20,14,58,20.30
2014,09,20,14,59,20.20
2014,09,20,15,00,20.30
2014,09,20,15,01,20.30
2014,09,20,15,02,20.30
2014,09,20,15,03,20.40
2014,09,20,15,04,20.30
2014,09,20,15,05,20.30
2014,09,20,15,06,20.20
2014,09,20,15,07,20.20
2014,09,20,15,08,20.30
2014,09,20,15,09,20.30
2014,09,20,15,10,20.30
2014,09,20,15,11,20.30
2014,09,20,15,12,20.30
2014,09,20,15,13,20.30
2014,09,20,15,14,20.30
2014,09,20,15,15,20.30
2014,09,20,15,16,20.30
2014,09,20,15,17,20.40
2014,09,20,15,18,20.40
2014,09,20,15,19,20.40
2014,09,20,15,20,20.40
2014,09,20,15,21,20.50
2014,09,20,15,22,20.40
2014,09,20,15,23,20.50
2014,09,20,15,24,20.50
2014,09,20,15,25,20.50
2014,09,20,15,26,20.50
2014,09,20,15,27,20.50
2014,09,20,15,28,20.50
2014,09,20,15,29,20.50
2014,09,20,15,30,20.40
2014,09,20,15,31,20.40
2014,09,20,15,32,20.40
2014,09,20,15,33,20.30
2014,09,20,15,34,20.30
2014,09,20,15,35,20.40
2014,09,20,15,36,20.40
2014,09,20,15,37,20.40
2014,09,20,15,38,20.40
2014,09,20,15,39,20.40
2014,09,20,15,40,20.50
2014,09,20,15,41,20.50
2014,09,20,15,42,20.40
2014,09,20,15,43,20.40
2014,09,20,15,44,20.40
2014,09,20,15,45,20.40
2014,09,20,15,46,20.40
2014,09,20,15,47,20.40
2014,09,20,15,48,20.30
2014,09,20,15,49,20.30
2014,09,20,15,50,20.30
2014,09,20,15,51,20.30
2014,09,20,15,52,20.30
2014,09,20,15,53,20.40
2014,09,20,15,54,20.50
2014,09,20,15,55,20.50
2014,09,20,15,56,20.60
2014,09,20,15,57,20.60
2014,09,20,15,58,20.80
2014,09,20,15,59,20.90
2014,09,20,16,00,20.90
2014,09,20,16,01,21.00
2014,09,20,16,02,21.00
2014,09,20,16,03,21.00
2014,09,20,16,04,21.00
2014,09,20,16,05,21.00
2014,09,20,16,06,20.90
2014,09,20,16,07,20.90
2014,09,20,16,08,20.90
2014,09,20,16,09,20.90
2014,09,20,16,10,20.80
2014,09,20,16,11,20.80
2014,09,20,16,12,20.80
2014,09,20,16,13,20.80
2014,09,20,16,14,20.70
2014,09,20,16,15,20.70
2014,09,20,16,16,20.70
2014,09,20,16,17,20.70
2014,09,20,16,18,20.70
2014,09,20,16,19,20.80
2014,09,20,16,20,20.80
2014,09,20,16,21,20.80
2014,09,20,16,22,20.80
2014,09,20,16,23,20.70
2014,09,20,16,24,20.60
2014,09,20,16,25,20.60
2014,09,20,16,26,20.60
2014,09,20,16,27,20.50
2014,09,20,16,28,20.50
2014,09,20,16,29,20.50
2014,09,20,16,30,20.40
2014,09,20,16,31,20.40
2014,09,20,16,32,20.50
2014,09,20,16,33,20.50
2014,09,20,16,34,20.50
2014,09,20,16,35,20.40
2014,09,20,16,36,20.40
2014,09,20,16,37,20.50
2014,09,20,16,38,20.50
2014,09,20,16,39,20.50
2014,09,20,16,40,20.50
2014,09,20,16,41,20.60
2014,09,20,16,42,20.60
2014,09,20,16,43,20.60
2014,09,20,16,44,20.70
2014,09,20,16,45,20.80
2014,09,20,16,46,20.80
2014,09,20,16,47,21.00
2014,09,20,16,48,21.10
2014,09,20,16,49,21.20
2014,09,20,16,50,21.20
2014,09,20,16,51,21.10
2014,09,20,16,52,21.10
2014,09,20,16,53,21.10
2014,09,20,16,54,21.10
2014,09,20,16,55,21.10
2014,09,20,16,56,21.10
2014,09,20,16,57,21.10
2014,09,20,16,58,21.30
2014,09,20,16,59,21.30
2014,09,20,17,00,21.40
2014,09,20,17,01,21.40
2014,09,20,17,02,21.30
2014,09,20,17,03,21.40
2014,09,20,17,04,21.40
2014,09,20,17,05,21.40
2014,09,20,17,06,21.50
2014,09,20,17,07,21.60
2014,09,20,17,08,21.60
2014,09,20,17,09,21.60
2014,09,20,17,10,21.50
2014,09,20,17,11,21.40
2014,09,20,17,12,21.40
2014,09,20,17,13,21.40
2014,09,20,17,14,21.40
2014,09,20,17,15,21.30
2014,09,20,17,16,21.30
2014,09,20,17,17,21.20
2014,09,20,17,18,21.10
2014,09,20,17,19,21.00